Date String (YYYY-MM-DD hh:mm:ss) UTC,Instrument flags,Ambient pressure (hPa),Sample flow (lpm),Bypass flow (lpm),Sample temperature (°C),Ambient temperature (°C),ASC tube jacket temperature (°C),LED temperature (°C),Box temperature (°C),Sample RH (%),Span deviation,Mass concentration (μg/m³),Mass concentration (μg/m³),Mass concentration (μg/m³)
DateTimeUTC,F1_M11,P_M11,Q1_M11,Q2_M11,T1_M11,T2_M11,T3_M11,T4_M11,T5_M11,U1_M11,ZSPAN_M11,X2_M11,X0_M11,X1_M11
2022-05-10 04:00:00,,0821.7,5.00,0.00,29.8,29.2,00.0,38.7,31.6,13.4,0000.0,0005.98,0020.58,0002.33
2022-05-10 04:01:00,,0821.6,5.00,0.00,29.8,29.2,00.0,38.7,31.6,13.2,0000.0,0005.92,0019.63,0002.31
2022-05-10 04:02:00,,0821.7,5.00,0.00,29.8,29.1,00.0,38.7,31.6,12.9,0000.0,0005.82,0019.33,0002.28
2022-05-10 04:03:00,,0821.7,5.00,0.00,29.8,29.1,00.0,38.7,31.6,13.0,0000.0,0005.73,0019.26,0002.25
2022-05-10 04:04:00,,0821.7,4.99,0.00,29.8,29.2,00.0,38.8,31.6,13.1,0000.0,0005.64,0019.47,0002.21
2022-05-10 04:05:00,,0821.7,5.00,0.00,29.8,29.2,00.0,38.7,31.6,13.1,0000.0,0005.58,0018.59,0002.19
2022-05-10 04:06:00,,0821.7,5.01,0.00,29.8,29.1,00.0,38.8,31.6,13.2,0000.0,0005.49,0017.10,0002.18
2022-05-10 04:07:00,,0821.8,4.99,0.00,29.8,29.1,00.0,38.8,31.6,13.1,0000.0,0005.51,0016.93,0002.18
2022-05-10 04:08:00,,0821.8,4.99,0.00,29.8,29.1,00.0,38.8,31.6,13.2,0000.0,0005.43,0017.06,0002.16
2022-05-10 04:09:00,,0821.9,5.00,0.00,29.8,29.2,00.0,38.8,31.6,13.3,0000.0,0005.40,0018.09,0002.13
2022-05-10 04:10:00,,0821.8,5.00,0.00,29.8,29.2,00.0,38.8,31.6,13.2,0000.0,0005.42,0018.48,0002.13
2022-05-10 04:11:00,,0821.8,5.00,0.00,29.8,29.2,00.0,38.8,31.6,13.1,0000.0,0005.40,0018.19,0002.12
2022-05-10 04:12:00,,0821.8,5.01,0.00,29.8,29.1,00.0,38.8,31.6,13.2,0000.0,0005.37,0018.68,0002.11
2022-05-10 04:13:00,,0821.7,5.00,0.00,29.8,29.1,00.0,38.8,31.6,13.2,0000.0,0005.39,0019.38,0002.12
2022-05-10 04:14:00,,0822.1,5.00,0.00,29.8,29.1,00.0,38.8,31.6,13.0,0000.0,0005.42,0019.79,0002.13
2022-05-10 04:15:00,,0821.9,5.00,0.00,29.8,29.1,00.0,38.8,31.6,12.9,0000.0,0005.40,0019.55,0002.14
2022-05-10 04:16:00,,0822.0,5.00,0.00,29.8,29.1,00.0,38.8,31.6,13.0,0000.0,0005.44,0020.17,0002.14
2022-05-10 04:17:00,,0822.1,5.00,0.00,29.8,29.1,00.0,38.8,31.6,12.9,0000.0,0005.46,0019.87,0002.14
2022-05-10 04:18:00,,0822.1,5.01,0.00,29.8,29.1,00.0,38.8,31.6,12.9,0000.0,0005.42,0019.49,0002.13
2022-05-10 04:19:00,,0822.1,5.00,0.00,29.8,29.1,00.0,38.8,31.6,13.0,0000.0,0005.40,0019.04,0002.12
2022-05-10 04:20:00,,0822.0,5.00,0.00,29.8,29.1,00.0,38.8,31.6,12.9,0000.0,0005.37,0018.31,0002.11
2022-05-10 04:21:00,,0821.9,5.00,0.00,29.8,29.1,00.0,38.8,31.6,12.9,0000.0,0005.34,0017.84,0002.09
2022-05-10 04:22:00,,0822.0,5.00,0.00,29.8,29.1,00.0,38.8,31.6,12.9,0000.0,0005.29,0018.47,0002.08
2022-05-10 04:23:00,,0822.1,4.99,0.00,29.8,29.1,00.0,38.8,31.6,13.0,0000.0,0005.26,0017.82,0002.08
2022-05-10 04:24:00,,0822.1,5.00,0.00,29.8,29.1,00.0,38.8,31.6,13.0,0000.0,0005.28,0017.46,0002.08
2022-05-10 04:25:00,,0822.1,5.00,0.00,29.8,29.1,00.0,38.8,31.6,13.1,0000.0,0005.26,0017.05,0002.07
2022-05-10 04:26:00,,0822.2,4.99,0.00,29.8,29.1,00.0,38.8,31.6,13.1,0000.0,0005.32,0017.12,0002.07
2022-05-10 04:27:00,,0822.1,5.00,0.00,29.8,29.1,00.0,38.8,31.6,13.0,0000.0,0005.36,0016.86,0002.06
2022-05-10 04:28:00,,0822.1,5.00,0.00,29.8,29.1,00.0,38.8,31.6,12.8,0000.0,0005.29,0017.36,0002.03
2022-05-10 04:29:00,,0822.1,5.00,0.00,29.8,29.1,00.0,38.8,31.6,12.6,0000.0,0005.28,0018.38,0002.02
2022-05-10 04:30:00,,0822.0,5.00,0.00,29.8,29.1,00.0,38.8,31.6,12.5,0000.0,0005.31,0018.76,0002.01
2022-05-10 04:31:00,,0822.0,4.99,0.00,29.8,29.1,00.0,38.8,31.6,12.6,0000.0,0005.30,0018.69,0002.00
2022-05-10 04:32:00,,0822.0,5.01,0.00,29.8,29.1,00.0,38.8,31.6,12.6,0000.0,0005.31,0018.88,0002.00
2022-05-10 04:33:00,,0822.1,5.01,0.00,29.8,29.1,00.0,38.8,31.6,12.6,0000.0,0005.36,0018.40,0001.99
2022-05-10 04:34:00,,0822.1,5.00,0.00,29.8,29.0,00.0,38.8,31.6,12.7,0000.0,0005.40,0018.24,0001.98
2022-05-10 04:35:00,,0822.1,4.99,0.00,29.8,29.1,00.0,38.8,31.6,12.8,0000.0,0005.32,0017.93,0001.99
2022-05-10 04:36:00,,0822.1,4.99,0.00,29.8,29.1,00.0,38.8,31.6,12.8,0000.0,0005.34,0018.28,0001.98
2022-05-10 04:37:00,,0822.1,5.01,0.00,29.8,29.1,00.0,38.8,31.6,12.7,0000.0,0005.31,0018.56,0001.96
2022-05-10 04:38:00,,0822.1,5.00,0.00,29.8,29.1,00.0,38.8,31.6,12.8,0000.0,0005.23,0018.53,0001.94
2022-05-10 04:39:00,,0822.2,4.99,0.00,29.8,29.1,00.0,38.8,31.6,12.7,0000.0,0005.25,0018.10,0001.96
2022-05-10 04:40:00,,0822.1,5.00,0.00,29.8,29.1,00.0,38.8,31.6,12.6,0000.0,0005.23,0017.46,0001.96
2022-05-10 04:41:00,,0822.1,5.00,0.00,29.8,29.1,00.0,38.8,31.6,12.6,0000.0,0005.19,0017.10,0001.95
2022-05-10 04:42:00,,0822.1,5.00,0.00,29.8,29.1,00.0,38.8,31.6,12.5,0000.0,0005.21,0017.50,0001.96
2022-05-10 04:43:00,,0822.2,5.00,0.00,29.8,29.1,00.0,38.8,31.6,12.5,0000.0,0005.29,0018.29,0001.98
2022-05-10 04:44:00,,0822.2,5.00,0.00,29.8,29.1,00.0,38.8,31.6,12.5,0000.0,0005.29,0018.62,0001.99
2022-05-10 04:45:00,,0822.2,5.00,0.00,29.8,29.1,00.0,38.8,31.6,12.5,0000.0,0005.29,0019.66,0001.98
2022-05-10 04:46:00,,0822.3,4.99,0.00,29.8,29.1,00.0,38.8,31.6,12.5,0000.0,0005.28,0019.64,0001.96
2022-05-10 04:47:00,,0822.3,4.99,0.00,29.8,29.0,00.0,38.8,31.6,12.7,0000.0,0005.28,0019.39,0001.94
2022-05-10 04:48:00,,0822.3,4.99,0.00,29.8,29.1,00.0,38.8,31.6,12.7,0000.0,0005.29,0019.42,0001.94
2022-05-10 04:49:00,,0822.2,5.00,0.00,29.8,29.1,00.0,38.8,31.6,12.5,0000.0,0005.37,0019.45,0001.96
2022-05-10 04:50:00,,0822.2,5.00,0.00,29.8,29.1,00.0,38.8,31.6,12.6,0000.0,0005.39,0019.66,0001.96
2022-05-10 04:51:00,,0822.2,5.00,0.00,29.8,29.1,00.0,38.8,31.6,12.5,0000.0,0005.42,0020.22,0001.97
2022-05-10 04:52:00,,0822.2,5.00,0.00,29.8,29.1,00.0,38.8,31.6,12.7,0000.0,0005.43,0020.02,0001.99
2022-05-10 04:53:00,,0822.2,5.00,0.00,29.8,29.1,00.0,38.8,31.6,12.6,0000.0,0005.45,0019.64,0001.98
2022-05-10 04:54:00,,0822.3,5.00,0.00,29.8,29.1,00.0,38.8,31.6,12.6,0000.0,0005.37,0018.57,0001.96
2022-05-10 04:55:00,,0822.3,5.00,0.00,29.8,29.1,00.0,38.8,31.6,12.6,0000.0,0005.31,0018.55,0001.95
2022-05-10 04:56:00,,0822.3,5.00,0.00,29.8,29.1,00.0,38.8,31.6,12.6,0000.0,0005.26,0017.29,0001.92
2022-05-10 04:57:00,,0822.3,5.01,0.00,29.8,29.1,00.0,38.8,31.6,12.6,0000.0,0005.25,0017.31,0001.91
2022-05-10 04:58:00,,0822.3,5.00,0.00,29.8,29.1,00.0,38.8,31.6,12.7,0000.0,0005.22,0018.54,0001.92
2022-05-10 04:59:00,,0822.3,4.99,0.00,29.8,29.1,00.0,38.8,31.6,12.6,0000.0,0005.29,0018.92,0001.94
